Les Deux-Alpes, France 16 day weather forecast

Slopes altitude range 1300 m - 3570m

Number of lifts: 51 Pistes: 225km

In some cases the lift and piste totals shown are for the ski domain (e.g. Three Valleys) rather than individual resort (e.g. Courchevel)

Overview

The 16 day weather forecast is fully updated 4 times every day.

    • Sun 16 JUN 2019
    • Sun 16
    • 8C 17C
    • Mon 17 JUN 2019
    • Mon 17
    • 14C 18C
    • Tue 18 JUN 2019
    • Tue 18
    • 13C 19C
    • Wed 19 JUN 2019
    • Wed 19
    • 14C 21C
    • Thu 20 JUN 2019
    • Thu 20
    • 14C 19C
    • Fri 21 JUN 2019
    • Fri 21
    • 12C 16C
    • Sat 22 JUN 2019
    • Sat 22
    • 11C 17C
    • Sun 23 JUN 2019
    • Sun 23
    • 12C 19C
    • Mon 24 JUN 2019
    • Mon 24
    • 15C 22C
    • Tue 25 JUN 2019
    • Tue 25
    • 17C 24C
    • Wed 26 JUN 2019
    • Wed 26
    • 8C 10C
    • Thu 27 JUN 2019
    • Thu 27
    • 8C 11C
    • Fri 28 JUN 2019
    • Fri 28
    • 12C 17C
    • Sat 29 JUN 2019
    • Sat 29
    • 15C 20C
    • Sun 30 JUN 2019
    • Sun 30
    • 15C 20C
    • Mon 01 JUL 2019
    • Mon 01
    • 14C 19C

Date:

Time Type 0°C level Temp Chill Snow Cloud Speed Gust Dir Press
12:00 3810m 17°C 17_7 0cm 7% 7mph 6mph 1018mB
15:00 3866m 17°C 17_7 0cm 11% 7mph 7mph 1016mB
18:00 3928m 17°C 17_5 0cm 6% 5mph 7mph 1017mB
21:00 3977m 8°C 8_3 0cm 0% 3mph 4mph 1018mB
0:00 3916m 8°C 8_3 0cm 4% 3mph 4mph 1018mB
3:00 3850m 8°C 8_4 0cm 0% 4mph 4mph 1017mB
6:00 3789m 8°C 8_1 0cm 0% 1mph 1mph 1018mB
9:00 3667m 14°C 14_4 0cm 17% 4mph 5mph 1017mB
12:00 3721m 18°C 18_3 0cm 13% 3mph 5mph 1017mB
15:00 3776m 17°C 17_3 0cm 99% 3mph 3mph 1015mB
18:00 3732m 18°C 18_1 0cm 100% 1mph 2mph 1016mB
21:00 3781m 10°C 10_4 0cm 100% 4mph 4mph 1017mB
0:00 3775m 9°C 9_4 0cm 69% 4mph 4mph 1017mB
3:00 3709m 9°C 9_4 0cm 11% 4mph 5mph 1017mB
6:00 3733m 9°C 9_3 0cm 25% 3mph 3mph 1016mB
9:00 3770m 13°C 13_5 0cm 81% 5mph 5mph 1016mB
12:00 3735m 19°C 19_6 0cm 85% 6mph 6mph 1015mB
15:00 3659m 20°C 20_5 0cm 1% 5mph 5mph 1014mB
18:00 3772m 20°C 20_2 0cm 1% 2mph 3mph 1013mB
21:00 3761m 11°C 11_4 0cm 0% 4mph 4mph 1016mB
0:00 3755m 11°C 11_5 0cm 0% 5mph 5mph 1015mB
3:00 3737m 10°C 10_6 0cm 55% 6mph 5mph 1014mB
6:00 3668m 10°C 10_5 0cm 61% 5mph 5mph 1014mB
9:00 3669m 14°C 14_8 0cm 1% 8mph 9mph 1013mB
12:00 3683m 21°C 21_7 0cm 12% 7mph 11mph 1012mB
15:00 3685m 21°C 21_8 0cm 0% 8mph 12mph 1011mB
18:00 3716m 21°C 21_5 0cm 19% 5mph 6mph 1012mB
21:00 3725m 11°C 11_4 0cm 47% 4mph 4mph 1014mB
0:00 3732m 10°C 10_4 0cm 58% 4mph 4mph 1014mB
3:00 3651m 10°C 10_4 0cm 100% 4mph 4mph 1013mB
6:00 3574m 10°C 10_4 0cm 100% 4mph 4mph 1013mB
9:00 3453m 14°C 14_6 0cm 14% 6mph 8mph 1013mB
12:00 3487m 19°C 19_5 0cm 30% 5mph 9mph 1013mB
15:00 3561m 17°C 17_4 0cm 79% 4mph 7mph 1012mB
18:00 3523m 17°C 17_2 0cm 79% 2mph 3mph 1013mB
21:00 3536m 9°C 9_3 0cm 0% 3mph 3mph 1015mB
0:00 3479m 9°C 9_4 0cm 1% 4mph 4mph 1015mB
3:00 3452m 8°C 8_3 0cm 53% 3mph 3mph 1015mB
6:00 3445m 8°C 8_1 0cm 27% 1mph 1mph 1015mB
9:00 3510m 12°C 12_4 0cm 67% 4mph 4mph 1015mB
12:00 3508m 16°C 16_3 0cm 73% 3mph 3mph 1015mB
15:00 3527m 16°C 16_5 0cm 80% 5mph 5mph 1014mB
18:00 3562m 16°C 16_3 0cm 83% 3mph 3mph 1015mB
21:00 3545m 9°C 9_3 0cm 89% 3mph 4mph 1016mB
0:00 3537m 8°C 8_2 0cm 68% 2mph 3mph 1016mB
3:00 3414m 7°C 7_2 0cm 49% 2mph 2mph 1016mB
6:00 3386m 7°C 7_2 0cm 27% 2mph 2mph 1016mB
9:00 3470m 11°C 11_4 0cm 27% 4mph 3mph 1015mB
12:00 3520m 17°C 17_5 0cm 36% 5mph 6mph 1015mB
15:00 3518m 18°C 18_5 0cm 4% 5mph 5mph 1013mB
18:00 3473m 18°C 18_3 0cm 17% 3mph 3mph 1014mB
21:00 3371m 9°C 9_3 0cm 96% 3mph 4mph 1016mB
0:00 3313m 8°C 8_3 0cm 98% 3mph 4mph 1016mB
3:00 3335m 8°C 8_3 0cm 47% 3mph 4mph 1016mB
6:00 3416m 7°C 7_2 0cm 55% 2mph 2mph 1016mB
9:00 3490m 12°C 12_4 0cm 53% 4mph 3mph 1016mB
12:00 3692m 19°C 19_6 0cm 69% 6mph 4mph 1016mB
15:00 3678m 19°C 19_5 0cm 92% 5mph 5mph 1015mB
18:00 3768m 19°C 19_3 0cm 55% 3mph 4mph 1015mB
21:00 4121m 11°C 11_4 0cm 46% 4mph 5mph 1018mB
0:00 4274m 10°C 10_5 0cm 68% 5mph 5mph 1018mB
3:00 4402m 11°C 11_5 0cm 72% 5mph 5mph 1017mB
6:00 4425m 10°C 10_4 0cm 68% 4mph 4mph 1017mB
9:00 4571m 15°C 15_4 0cm 80% 4mph 5mph 1017mB
12:00 4570m 22°C 22_5 0cm 59% 5mph 5mph 1017mB
15:00 4633m 23°C 23_6 0cm 0% 6mph 6mph 1016mB
18:00 4661m 23°C 23_3 0cm 0% 3mph 4mph 1016mB
21:00 4674m 14°C 14_5 0cm 0% 5mph 5mph 1019mB
0:00 4610m 13°C 13_5 0cm 0% 5mph 5mph 1019mB
3:00 4574m 13°C 13_5 0cm 0% 5mph 5mph 1018mB
6:00 4557m 13°C 13_5 0cm 0% 5mph 5mph 1017mB
9:00 4401m 17°C 17_6 0cm 0% 6mph 8mph 1017mB
12:00 4370m 24°C 24_7 0cm 0% 7mph 9mph 1016mB
15:00 4385m 24°C 24_7 0cm 0% 7mph 10mph 1015mB
18:00 4409m 24°C 24_3 0cm 12% 3mph 4mph 1016mB
21:00 4407m 13°C 13_1 0cm 14% 1mph 2mph 1018mB
0:00 4190m 11°C 11_3 0cm 32% 3mph 4mph 1018mB
3:00 4054m 10°C 10_4 0cm 81% 4mph 5mph 1017mB
6:00 3708m 10°C 10_4 0cm 90% 4mph 5mph 1017mB
Afternoon 0.0416667mm 0.1875 2882m 10°C 10_8 0cm 74% 8mph 11mph 1016mB
Morning 0.0416667mm 0.0625 2427m 3°C 3_8 0cm 62% 8mph 12mph 1017mB
Afternoon 0.0208333mm 0.0625 2956m 11°C 11_9 0cm 28% 9mph 12mph 1016mB
Morning 0mm 0 3869m 3°C 3_4 0cm 0% 4mph 6mph 1020mB
Afternoon 0mm 0 4244m 17°C 17_5 0cm 0% 5mph 7mph 1017mB
Morning 0mm 0 4245m 7°C 7_2 0cm 0% 2mph 2mph 1017mB
Afternoon 0mm 0 4170m 20°C 20_5 0cm 0% 5mph 6mph 1012mB
Morning 0mm 0 4220m 8°C 8_3 0cm 77% 3mph 3mph 1012mB
Afternoon 0mm 0 4347m 20°C 20_4 0cm 0% 4mph 5mph 1008mB
Morning 0mm 0 3988m 8°C 8_2 0cm 15% 2mph 2mph 1010mB
Afternoon 0.0208333mm 0 3868m 19°C 19_6 0cm 0% 6mph 7mph 1009mB
Morning 0.0208333mm 0.0625 3906m 8°C 8_5 0cm 61% 5mph 8mph 1012mB

16 day outlook at a glance

Forecast issued: 6/16/2019 2:33:28 PM

Chat

Your comments and questions. In a resort? Let us know what it's like!


Characters left 250

For terms and conditions see Readers Comments on the Cookie and privacy policy page.